sat.trackr.live / text

‹ back to catalog

2024-205N

NORAD 61906 · 2024-205N

PAYLOAD ACTIVE UNKNOWN

§ Identity

Operator
Country
PRC
Launch date
2024-11-11
Launch site
JSC
Launch vehicle
Mass (kg)
RCS (m²)

External: N2YO · Heavens-Above · Gunter

§ Orbital elements

Epoch: 2026-05-25T04:30:56.956608Z

Period
93.69 min
Inclination
97.4163°
Eccentricity
0.0010508
Mean motion
15.36908207 rev/d
Perigee alt
448.1 km
Apogee alt
462.4 km
Semi-major
6,833.4 km
B*
5.5696e-4
RAAN
225.7003°
Arg perigee
116.9912°
Mean anomaly
243.2407°
Rev number
8,534

§ Raw data

2024-205N1 61906U 24205N   26145.18815922  .00020081  00000+0  55696-3 0  99932 61906  97.4163 225.7003 0010508 116.9912 243.2407 15.36908207 85349

JSON: /api/v1/satellites/61906 · /tle

For live sub-satellite position, see the globe view (requires WebGL).

§ Visibility from observer

Set your observer location to see the next 7 days of passes ≥ 10°. The values pass through the URL so the page stays shareable.

No JS? Fill the form by hand. The geolocation button needs JavaScript.